Flag for U.S.A. Weather past 2 weeks in Palestine, Texas, U.S.A.

Now
43 °F

Fog.


Feels Like: 40 °F
Forecast: 43 / 50 °F
Wind: 5 mph from North

Location: Palestine Municipal Airport

Current Time: Mar 2, 2015 at 2:04:19 AM

Latest Report: Mar 2, 2015 at 1:15 AM


Visibility: 2 mi

Pressure: 30.34 "Hg

Humidity: 100%

Dew point: 43 °F

Location of PalestineLocation

Historic Weather in Palestine — Graph

°F

Palestine temperature yesterday

Maximum temperature yesterday: 45 °F (at 4:35 PM)
Minimum temperature yesterday: 37 °F (at 3:15 AM)
Average temperature yesterday: 41 °F

Past Weeks' High & Low Weather Summary

 TemperatureHumidityPressure
High71 °F (Feb 21, 1:15 PM)100% (Feb 15, 10:55 PM)30.50 "Hg (Feb 15, 10:55 PM)
Low27 °F (Feb 26, 6:15 AM)38% (Feb 18, 11:55 AM)29.80 "Hg (Feb 20, 5:35 PM)
Average42 °F82%30.20 "Hg
* Reported Feb 15 12:15 AM — Mar 2 12:55 AM, Palestine, Weather by CustomWeather, © 2015

Note: Actual official high and low records may vary slightly from our data, if they occured in-between our weather recording intervals... More about our weather records

Advertising

Palestine weather history for previous 24 hours

 ConditionsComfort  
Time TempWeatherWind HumidityBarometerVisibility
12:55 AM
Mon, Mar 2
43 °FFog.5 mph100%30.35 "Hg2 mi
12:35 AM43 °FFog.5 mph100%30.35 "Hg1 mi
12:15 AM43 °FLight rain. Low clouds.7 mph100%30.34 "Hg1 mi
11:55 PM
Sun, Mar 1
43 °FFog.5 mph100%30.35 "Hg1 mi
11:35 PM44 °FFog.3 mph100%30.35 "Hg1 mi
11:15 PM44 °FDrizzle. Low clouds.7 mph100%30.33 "Hg1 mi
10:55 PM44 °FFog.6 mph100%30.34 "Hg2 mi
10:35 PM44 °FFog.6 mph100%30.34 "Hg3 mi
10:15 PM44 °FDrizzle. Low clouds.6 mph100%30.34 "Hg2 mi
9:55 PM44 °FRain. Low clouds.6 mph100%30.34 "Hg3 mi
9:15 PM44 °FFog.5 mph100%30.34 "Hg2 mi
8:55 PM44 °FRain. Low clouds.6 mph100%30.34 "Hg1 mi
8:35 PM44 °FFog.8 mph100%30.33 "Hg1 mi
8:15 PM44 °FDrizzle. Low clouds.7 mph100%30.32 "Hg1 mi
7:55 PM44 °FFog.9 mph100%30.31 "Hg2 mi
7:35 PM44 °FFog.7 mph100%30.31 "Hg2 mi
7:15 PM44 °FFog.5 mph100%30.31 "Hg2 mi
6:55 PM44 °FFog.3 mph100%30.31 "Hg4 mi
6:35 PM44 °FFog.6 mph100%30.29 "Hg5 mi
6:15 PM44 °FFog.8 mph100%30.29 "Hg4 mi
5:55 PM45 °FFog.7 mph100%30.28 "Hg2 mi
5:35 PM45 °FFog.7 mph100%30.28 "Hg2 mi
5:15 PM44 °FFog.6 mph100%30.27 "Hg2 mi
4:55 PM45 °FFog.8 mph100%30.28 "Hg2 mi
4:35 PM45 °FFog.6 mph100%30.28 "Hg2 mi
4:15 PM45 °FFog.6 mph100%30.28 "Hg1 mi
3:15 PM44 °FFog.6 mph100%30.28 "Hg2 mi
2:55 PM44 °FFog.5 mph100%30.28 "Hg2 mi
2:35 PM44 °FFog.7 mph100%30.27 "Hg1 mi
2:15 PM43 °FFog.7 mph100%30.28 "Hg2 mi
1:35 PM42 °FDrizzle. Low clouds.7 mph100%30.28 "Hg2 mi
1:15 PM42 °FFog.7 mph100%30.29 "Hg1 mi
12:55 PM41 °FFog.6 mph100%30.30 "Hg2 mi
12:35 PM41 °FFog.7 mph100%30.30 "Hg1 mi
12:15 PM41 °FFog.8 mph100%30.31 "Hg1 mi
11:55 AM41 °FFog.7 mph100%30.32 "Hg2 mi
11:15 AM40 °FFog.8 mph100%30.32 "Hg2 mi
10:55 AM40 °FFog.5 mph100%30.33 "Hg1 mi
10:35 AM39 °FFog.9 mph100%30.33 "Hg1 mi
10:15 AM39 °FFog.7 mph100%30.33 "Hg1 mi
9:55 AM39 °FFog.7 mph100%30.32 "Hg1 mi
9:15 AM38 °FFog.6 mph100%30.32 "Hg1 mi
8:55 AM38 °FFog.7 mph100%30.31 "Hg1 mi
8:35 AM38 °FFog.7 mph100%30.30 "Hg1 mi
8:15 AM38 °FFog.6 mph100%30.30 "Hg1 mi
7:55 AM38 °FFog.8 mph100%30.29 "Hg1 mi
7:35 AM38 °FFog.7 mph100%30.29 "Hg1 mi
7:15 AM37 °FFog.7 mph100%30.28 "Hg1 mi
6:55 AM37 °FFog.6 mph100%30.28 "Hg1 mi
6:35 AM37 °FFog.5 mph100%30.28 "Hg2 mi
6:15 AM37 °FFog.5 mph99%30.28 "Hg2 mi
5:55 AM37 °FFog.5 mph100%30.27 "Hg2 mi
5:35 AM37 °FFog.6 mph99%30.26 "Hg2 mi
5:15 AM37 °FDrizzle. Mostly cloudy.6 mph98%30.27 "Hg2 mi
4:55 AM37 °FFog.5 mph98%30.27 "Hg4 mi
4:35 AM37 °FFog.6 mph98%30.27 "Hg5 mi
4:15 AM37 °FRain. Mostly cloudy.5 mph98%30.27 "Hg4 mi
3:55 AM37 °FLight rain. Mostly cloudy.7 mph98%30.27 "Hg2 mi
3:35 AM37 °FFog.6 mph98%30.26 "Hg5 mi
3:15 AM37 °FFog.5 mph98%30.27 "Hg4 mi
2:55 AM37 °FFog.7 mph98%30.28 "Hg5 mi
2:35 AM37 °FFog.7 mph97%30.28 "Hg4 mi
2:15 AM37 °FFog.5 mph97%30.29 "Hg5 mi
Weather by CustomWeather, © 2015

See weather overviewHow to use our weather pages